Weather History for Perry, FL

Change the Weather History Date:

Sunday, September 8, 2013

  Actual Average (KCTY) Record (KCTY)
Temperature  
Mean Temperature 78 °F 80 °F  
Max Temperature 91 °F 90 °F 95 °F (2008)
Min Temperature 66 °F 70 °F 57 °F (2011)
Degree Days  
Heating Degree Days 0 0  
Month to date heating degree days 0  
Since 1 July heating degree days 0  
Cooling Degree Days 13 15  
Month to date cooling degree days 120  
Year to date cooling degree days 2058  
Growing Degree Days 28 (Base 50)    
Moisture  
Dew Point 66 °F    
Average Humidity 73    
Maximum Humidity 100    
Minimum Humidity 38    
Precipitation  
Precipitation 0.01 in 0.17 in 3.19 in (2004)
Month to date precipitation 1.47  
Year to date precipitation 36.84  
Sea Level Pressure  
Sea Level Pressure 29.98 in    
Wind  
Wind Speed 1 mph (NE)    
Max Wind Speed 7 mph    
Max Gust Speed -    
Visibility 8 miles    
Events      
T = Trace of Precipitation, MM = Missing Value Source: NWS Daily Summary

Daily Weather History Graph

Daily Weather History Graph

Search for Another Location

Airport:

Trip Planner

Search our weather history database for the weather conditions in past years. The results will help you decide how hot, cold, wet, or windy it might be!

Date:

Astronomy

Sep. 08, 2013 Rise Set
Actual Time 7:15 AM EDT 7:48 PM EDT
Civil Twilight 6:51 AM EDT 8:12 PM EDT
Nautical Twilight 6:22 AM EDT 8:40 PM EDT
Astronomical Twilight 5:53 AM EDT 9:09 PM EDT
Moon 10:13 AM EDT (9/8) 9:42 PM EDT (9/8)
Length of Visible Light 13h 21m
Length of Day
12h 32m
Waxing Crescent, 11% of the Moon is Illuminated
Sep 8
Waxing Crescent
Sep 12
First Quarter
Sep 19
Full
Sep 26
Last Quarter
Oct 4
New

Hourly Weather History & Observations

Time (EDT) Temp. Heat Index Dew Point Humidity Pressure Visibility Wind Dir Wind Speed Gust Speed Precip Events Conditions
12:15 AM 71.6 °F - 68.0 °F 88% 30.00 in 10.0 mi Calm Calm - N/A   Clear
12:35 AM 71.6 °F - 68.0 °F 88% 30.00 in 10.0 mi Calm Calm - N/A   Clear
12:53 AM 73.0 °F - 68.0 °F 84% 29.99 in - Calm Calm - N/A   Unknown
12:55 AM 69.8 °F - 66.2 °F 88% 30.00 in 10.0 mi Calm Calm - N/A   Clear
1:15 AM 69.8 °F - 68.0 °F 94% 30.00 in 10.0 mi Calm Calm - N/A   Clear
1:35 AM 69.8 °F - 68.0 °F 94% 30.00 in 10.0 mi Calm Calm - N/A   Clear
1:53 AM 73.0 °F - 68.0 °F 84% 29.99 in - ENE 3.5 mph - N/A   Unknown
1:55 AM 71.6 °F - 68.0 °F 88% 30.00 in 10.0 mi Calm Calm - N/A   Clear
2:15 AM 71.6 °F - 68.0 °F 88% 30.00 in 10.0 mi Calm Calm - N/A   Clear
2:35 AM 71.6 °F - 68.0 °F 88% 29.99 in 10.0 mi Calm Calm - N/A   Clear
2:53 AM 72.0 °F - 68.0 °F 87% 29.97 in - Calm Calm - N/A   Unknown
2:55 AM 69.8 °F - 68.0 °F 94% 29.99 in 10.0 mi Calm Calm - N/A   Clear
3:15 AM 69.8 °F - 68.0 °F 94% 29.99 in 7.0 mi Calm Calm - N/A   Clear
3:35 AM 69.8 °F - 66.2 °F 88% 29.98 in 7.0 mi Calm Calm - N/A   Clear
3:53 AM 70.0 °F - 66.9 °F 90% 29.97 in - Calm Calm - N/A   Unknown
3:55 AM 68.0 °F - 66.2 °F 94% 29.98 in 2.5 mi Calm Calm - N/A   Clear
4:15 AM 69.8 °F - 68.0 °F 94% 29.97 in 5.0 mi Calm Calm - N/A   Clear
4:35 AM 68.0 °F - 66.2 °F 94% 29.97 in 3.0 mi Calm Calm - N/A   Clear
4:53 AM 70.0 °F - 66.9 °F 90% 29.96 in - Calm Calm - N/A   Unknown
4:55 AM 69.8 °F - 68.0 °F 94% 29.97 in 7.0 mi Calm Calm - N/A   Clear
5:15 AM 68.0 °F - 66.2 °F 94% 29.97 in 5.0 mi Calm Calm - N/A   Clear
5:35 AM 68.0 °F - 68.0 °F 100% 29.98 in 5.0 mi Calm Calm - N/A   Clear
5:53 AM 70.0 °F - 66.9 °F 90% 29.97 in - Calm Calm - N/A   Unknown
5:55 AM 68.0 °F - 66.2 °F 94% 29.98 in 3.0 mi Calm Calm - N/A   Clear
6:15 AM 68.0 °F - 66.2 °F 94% 29.99 in 1.8 mi Calm Calm - N/A   Mist
6:35 AM 68.0 °F - 64.4 °F 88% 29.99 in 2.5 mi Calm Calm - N/A   Clear
6:53 AM 69.1 °F - 66.0 °F 90% 29.98 in - Calm Calm - N/A   Unknown
6:55 AM 68.0 °F - 66.2 °F 94% 29.99 in 1.8 mi Calm Calm - N/A   Mist
7:15 AM 68.0 °F - 66.2 °F 94% 29.99 in 1.2 mi Calm Calm - N/A   Mist
7:35 AM 66.2 °F - 64.4 °F 94% 29.99 in 1.2 mi Calm Calm - N/A   Mist
7:53 AM 69.1 °F - 66.0 °F 90% 29.98 in - Calm Calm - N/A   Unknown
7:55 AM 68.0 °F - 64.4 °F 88% 30.00 in 2.5 mi Calm Calm - N/A   Clear
8:15 AM 68.0 °F - 68.0 °F 100% 30.00 in 3.0 mi Calm Calm - N/A   Clear
8:35 AM 69.8 °F - 69.8 °F 100% 30.01 in 5.0 mi Calm Calm - N/A   Clear
8:53 AM 75.9 °F - 71.1 °F 85% 29.99 in - Calm Calm - N/A   Unknown
8:55 AM 71.6 °F - 69.8 °F 94% 30.01 in 10.0 mi Calm Calm - N/A   Clear
9:15 AM 73.4 °F - 71.6 °F 94% 30.01 in 10.0 mi Calm Calm - N/A   Clear
9:35 AM 77.0 °F - 71.6 °F 83% 30.01 in 10.0 mi Calm Calm - N/A   Clear
9:53 AM 81.0 °F 85.2 °F 72.0 °F 74% 30.00 in - SE 3.5 mph - 0.01 in   Unknown
9:55 AM 78.8 °F - 71.6 °F 78% 30.01 in 10.0 mi SE 3.5 mph - N/A   Clear
10:15 AM 80.6 °F 83.9 °F 69.8 °F 70% 30.02 in 10.0 mi Calm Calm - N/A   Clear
10:35 AM 80.6 °F 83.2 °F 68.0 °F 65% 30.02 in 10.0 mi Calm Calm - N/A   Clear
10:53 AM 84.9 °F 88.2 °F 68.0 °F 57% 30.01 in - NE 4.6 mph - N/A   Unknown
10:55 AM 82.4 °F 85.4 °F 68.0 °F 62% 30.02 in 10.0 mi ENE 3.5 mph - N/A   Clear
11:15 AM 82.4 °F 84.6 °F 66.2 °F 58% 30.02 in 10.0 mi East 4.6 mph - N/A   Scattered Clouds
11:35 AM 82.4 °F 84.6 °F 66.2 °F 58% 30.02 in 10.0 mi North 3.5 mph - N/A   Mostly Cloudy
11:53 AM 87.1 °F 89.9 °F 66.9 °F 51% 30.00 in - East 4.6 mph - N/A   Unknown
11:55 AM 82.4 °F 83.9 °F 64.4 °F 54% 30.01 in 10.0 mi East 4.6 mph - N/A   Scattered Clouds
12:15 PM 86.0 °F 87.3 °F 64.4 °F 48% 30.01 in 10.0 mi NE 4.6 mph - N/A   Scattered Clouds
12:35 PM 86.0 °F 87.3 °F 64.4 °F 48% 30.00 in 10.0 mi Calm Calm - N/A   Scattered Clouds
12:53 PM 87.1 °F 89.2 °F 66.0 °F 49% 29.99 in - East 4.6 mph - N/A   Unknown
12:55 PM 84.2 °F 85.0 °F 62.6 °F 48% 30.00 in 10.0 mi East 4.6 mph - N/A   Scattered Clouds
1:15 PM 86.0 °F 86.6 °F 62.6 °F 45% 30.00 in 10.0 mi East 3.5 mph - N/A   Clear
1:35 PM 87.8 °F 87.6 °F 60.8 °F 40% 29.99 in 10.0 mi East 4.6 mph - N/A   Clear
1:53 PM 89.1 °F 92.1 °F 66.9 °F 48% 29.97 in - North 5.8 mph - N/A   Unknown
1:55 PM 86.0 °F 87.3 °F 64.4 °F 48% 29.99 in 10.0 mi North 4.6 mph - N/A   Scattered Clouds
2:15 PM 86.0 °F 86.6 °F 62.6 °F 45% 29.98 in 10.0 mi North 6.9 mph - N/A   Scattered Clouds
2:35 PM 86.0 °F 86.6 °F 62.6 °F 45% 29.97 in 10.0 mi Calm Calm - N/A   Scattered Clouds
2:53 PM 89.1 °F 90.0 °F 63.0 °F 42% 29.95 in - Calm Calm - N/A   Unknown
2:55 PM 86.0 °F 86.1 °F 60.8 °F 43% 29.96 in 10.0 mi Calm Calm - N/A   Scattered Clouds
3:15 PM 86.0 °F 86.1 °F 60.8 °F 43% 29.96 in 10.0 mi NNE 4.6 mph - N/A   Scattered Clouds
3:35 PM 87.8 °F 87.6 °F 60.8 °F 40% 29.95 in 10.0 mi East 3.5 mph - N/A   Scattered Clouds
3:53 PM 88.0 °F 89.3 °F 64.0 °F 45% 29.93 in - East 4.6 mph - N/A   Unknown
3:55 PM 86.0 °F 86.6 °F 62.6 °F 45% 29.95 in 10.0 mi Calm Calm - N/A   Mostly Cloudy
4:15 PM 87.8 °F 87.1 °F 59.0 °F 38% 29.94 in 10.0 mi Calm Calm - N/A   Scattered Clouds
4:35 PM 87.8 °F 87.6 °F 60.8 °F 40% 29.94 in 10.0 mi ENE 4.6 mph - N/A   Scattered Clouds
4:53 PM 90.0 °F 90.6 °F 63.0 °F 40% 29.92 in - Calm Calm - N/A   Unknown
4:55 PM 87.8 °F 87.1 °F 59.0 °F 38% 29.94 in 10.0 mi Calm Calm - N/A   Scattered Clouds
5:15 PM 87.8 °F 87.6 °F 60.8 °F 40% 29.93 in 10.0 mi NNE 5.8 mph - N/A   Clear
5:35 PM 87.8 °F 87.6 °F 60.8 °F 40% 29.94 in 10.0 mi NNE 3.5 mph - N/A   Scattered Clouds
5:53 PM 90.0 °F 91.3 °F 64.0 °F 42% 29.92 in - ENE 4.6 mph - N/A   Unknown
5:55 PM 87.8 °F 87.6 °F 60.8 °F 40% 29.94 in 10.0 mi ENE 3.5 mph - N/A   Scattered Clouds
6:15 PM 87.8 °F 88.5 °F 62.6 °F 43% 29.94 in 10.0 mi Calm Calm - N/A   Clear
6:35 PM 86.0 °F 86.1 °F 60.8 °F 43% 29.94 in 10.0 mi North 4.6 mph - N/A   Clear
6:53 PM 87.1 °F 88.9 °F 64.9 °F 48% 29.92 in - North 3.5 mph - N/A   Unknown
6:55 PM 86.0 °F 86.6 °F 62.6 °F 45% 29.94 in 10.0 mi North 3.5 mph - N/A   Clear
7:15 PM 82.4 °F 83.9 °F 64.4 °F 54% 29.94 in 10.0 mi Calm Calm - N/A   Clear
7:35 PM 80.6 °F 83.2 °F 68.0 °F 65% 29.93 in 10.0 mi Calm Calm - N/A   Clear
7:53 PM 80.1 °F 83.2 °F 70.0 °F 71% 29.93 in - Calm Calm - N/A   Unknown
7:55 PM 77.0 °F - 68.0 °F 74% 29.94 in 10.0 mi Calm Calm - N/A   Clear
8:15 PM 77.0 °F - 68.0 °F 74% 29.95 in 10.0 mi Calm Calm - N/A   Clear
8:35 PM 75.2 °F - 69.8 °F 83% 29.95 in 10.0 mi Calm Calm - N/A   Clear
8:53 PM 77.0 °F - 69.1 °F 76% 29.94 in - Calm Calm - N/A   Unknown
8:55 PM 75.2 °F - 69.8 °F 83% 29.96 in 10.0 mi Calm Calm - N/A   Clear
9:15 PM 73.4 °F - 69.8 °F 88% 29.96 in 10.0 mi Calm Calm - N/A   Clear
9:35 PM 73.4 °F - 68.0 °F 83% 29.97 in 10.0 mi Calm Calm - N/A   Clear
9:53 PM 75.0 °F - 70.0 °F 84% 29.96 in - Calm Calm - N/A   Unknown
9:55 PM 73.4 °F - 69.8 °F 88% 29.97 in 10.0 mi Calm Calm - N/A   Clear
10:15 PM 71.6 °F - 69.8 °F 94% 29.98 in 10.0 mi Calm Calm - N/A   Clear
10:35 PM 71.6 °F - 69.8 °F 94% 29.99 in 10.0 mi Calm Calm - N/A   Clear
10:53 PM 73.9 °F - 70.0 °F 87% 29.97 in - Calm Calm - N/A   Unknown
10:55 PM 71.6 °F - 69.8 °F 94% 29.99 in 10.0 mi Calm Calm - N/A   Clear
11:15 PM 71.6 °F - 69.8 °F 94% 29.99 in 7.0 mi Calm Calm - N/A   Clear
11:35 PM 71.6 °F - 68.0 °F 88% 30.00 in 10.0 mi Calm Calm - N/A   Clear
11:53 PM 73.9 °F - 70.0 °F 87% 29.99 in - Calm Calm - N/A   Unknown
11:55 PM 71.6 °F - 69.8 °F 94% 30.00 in 7.0 mi Calm Calm - N/A   Clear